Wetbulb
57.64 58.55 59.90 60.70 61.50 63.25 62.42 62.58 60.77 61.14 60.22 59.63 57.49 57.37 56.98 57.75 57.72 58.30 59.12 58.02 57.92 56.54 55.54 54.79 54.36 54.26 53.40 53.45 53.70 52.67 51.46 51.84 52.91 52.64 52.31 53.02 54.35 54.81 55.03 53.68 51.95 51.96 52.53
55.85 57.35 57.97 58.46 58.58 58.61 58.98 58.93 58.53 58.47 58.01 57.60 57.13 57.17 56.85 57.43 57.42 57.98 56.78 57.69 56.57 55.77 54.73 53.45 52.49 52.40 51.64 51.15 51.10 50.79 50.67 50.65 51.27 50.27 49.55 46.67 49.28 51.58 53.07 54.39 53.44 51.89 53.00
54.19 55.62 56.68 57.26 57.72 57.44 57.82 57.57 57.77 57.74 57.64 57.43 57.13 56.53 56.46 56.74 55.43 55.40 55.23 56.57 55.84 54.79 54.75 53.86 52.87 51.50 50.87 49.52 49.40 49.55 48.81 48.02 49.24 50.10 48.05 44.41 43.04 46.44 49.67 50.68 51.33 52.66 52.52
54.67 55.25 55.85 56.22 56.75 57.26 58.29 57.80 57.71 57.35 57.15 56.85 55.47 55.24 54.12 53.00 53.89 54.26 53.69 54.25 54.81 53.54 52.09 51.39 50.94 50.46 50.30 48.82 49.16 50.51 48.61 47.28 45.13 46.70 46.05 44.38 44.06 42.51 42.24 45.82 48.21 49.39 49.06
54.72 54.61 55.08 55.93 56.71 57.84 57.78 57.82 57.41 56.90 57.10 56.54 56.36 54.64 53.13 52.83 52.81 52.50 52.01 51.20 51.76 51.14 50.72 49.92 48.91 49.23 49.09 48.92 48.21 46.33 44.84 44.24 42.69 41.90 41.26 40.52 40.75 40.71 39.45 37.66 39.71 41.64 42.53
54.32 54.72 55.75 56.67 56.45 58.11 57.61 57.64 56.70 56.49 57.03 55.72 55.16 53.58 52.17 51.79 50.53 50.61 49.63 49.36 49.01 48.59 48.53 48.97 48.23 48.33 48.47 48.24 47.17 46.31 43.67 44.09 42.66 41.66 40.08 38.16 37.09 36.60 35.12 34.71 34.09 35.10 38.84
54.35 54.36 54.31 54.61 55.65 56.01 56.71 56.63 56.15 55.15 55.83 55.60 55.22 54.47 53.18 52.99 51.22 49.48 48.30 46.91 46.06 45.92 45.92 47.07 47.35 47.34 47.64 46.48 45.53 44.30 43.77 43.30 39.61 38.86 38.28 39.01 38.71 37.16 36.28 36.41 35.69 35.38 36.52
54.40 54.71 54.94 54.94 55.18 55.90 55.68 55.70 55.27 54.27 54.18 54.38 52.90 52.90 52.43 50.96 49.45 48.50 46.88 45.45 45.15 45.24 46.44 47.31 47.19 47.19 46.87 45.58 44.69 44.14 43.68 42.61 41.98 40.15 41.15 39.99 40.91 39.55 38.41 36.53 34.73 32.49 32.10
53.42 53.57 54.44 55.01 54.91 54.82 54.56 54.55 54.07 53.39 53.24 52.62 52.37 51.79 50.71 49.88 48.26 47.25 45.99 45.10 45.17 45.75 45.80 45.90 46.04 44.49 43.30 44.33 43.56 42.38 41.85 41.39 42.67 41.94 41.64 40.70 40.47 40.49 39.97 38.02 36.20 33.94 28.84
52.96 53.07 53.17 53.38 53.78 53.83 53.97 54.16 52.72 51.58 51.61 51.02 50.19 49.42 48.84 48.34 47.07 45.83 45.16 44.78 44.93 44.96 44.45 44.18 43.49 43.41 43.99 42.76 42.36 41.64 41.06 41.59 40.66 40.53 39.92 40.13 40.62 41.10 40.58 39.77 38.88 37.49 33.83
51.83 52.27 52.50 52.73 53.09 53.45 53.24 51.74 50.70 50.36 49.63 48.81 48.23 47.04 46.83 47.06 46.31 45.53 44.88 44.86 44.39 43.79 43.58 43.62 43.25 42.72 41.93 41.45 40.62 40.32 39.73 38.68 37.51 38.49 38.56 38.35 38.83 38.31 38.76 38.50 37.84 36.55 36.06
51.69 51.20 51.41 51.87 51.35 51.50 51.08 50.24 49.57 49.07 47.95 47.32 46.61 45.99 46.35 45.87 44.44 43.83 43.59 43.89 43.65 44.26 43.33 42.65 41.94 41.62 41.02 40.61 39.61 37.98 37.57 36.97 35.97 36.15 36.56 36.53 37.89 36.04 35.78 35.30 34.26 33.88 33.57
50.41 50.42 50.70 50.41 49.74 49.87 49.50 48.95 48.54 47.79 47.01 46.17 45.13 44.78 44.65 43.66 42.14 42.38 43.19 42.94 42.52 41.84 41.24 40.58 39.20 38.86 38.54 37.76 36.41 35.94 35.39 33.93 33.51 33.72 33.55 34.20 34.39 33.13 33.46 33.78 33.33 33.13 34.49
49.57 49.55 48.89 48.65 48.68 48.59 47.52 47.35 47.51 47.00 46.22 45.05 44.17 43.66 43.57 42.30 41.71 42.15 42.12 41.70 41.32 40.06 38.65 38.19 38.05 37.86 37.09 36.79 36.38 35.47 33.02 32.02 31.96 32.49 32.54 32.80 32.85 32.15 31.93 31.83 30.54 31.28 29.34
48.68 47.42 46.74 46.73 46.59 46.28 46.30 46.67 46.95 45.78 45.80 43.96 43.46 42.77 43.34 42.49 41.66 41.26 41.26 40.72 40.27 38.72 37.93 37.13 36.89 36.74 36.36 34.43 32.28 32.07 30.97 30.11 29.88 30.30 31.63 32.45 34.15 36.23 33.73 31.51 28.97 28.32 27.28
46.45 45.84 45.17 45.75 45.67 45.80 45.43 46.42 45.74 45.14 45.27 43.69 42.82 43.39 42.91 41.87 41.05 40.70 40.37 39.11 37.65 36.94 36.65 35.86 35.69 34.89 36.24 31.49 31.28 30.06 28.33 29.73 29.18 27.89 29.46 31.42 33.84 33.62 34.67 34.35 34.14 31.37 27.24
44.53 44.80 45.08 45.76 45.24 45.01 45.23 44.36 45.27 45.42 44.28 43.45 43.51 43.40 42.64 41.24 40.21 39.81 39.00 36.65 35.67 35.57 34.88 34.63 34.62 33.78 33.53 31.73 31.23 30.49 28.49 28.17 28.00 27.94 28.49 29.50 32.09 31.48 30.93 30.46 31.79 31.56 32.39
44.70 45.32 45.47 45.00 44.86 44.43 44.30 45.04 45.37 44.59 43.94 43.06 42.27 42.57 41.93 40.33 39.50 38.93 37.32 35.85 35.18 34.18 33.68 33.68 33.89 32.27 32.85 33.38 32.14 30.45 27.45 26.56 26.75 27.35 26.89 26.72 27.48 28.51 29.27 28.46 27.83 28.62 29.26
45.23 44.87 45.18 44.96 44.80 44.39 44.16 43.20 42.57 42.49 42.55 42.37 41.49 40.56 40.98 39.67 39.09 37.85 35.71 34.97 34.35 33.64 33.41 34.06 32.39 31.02 30.36 32.75 32.74 30.76 27.05 26.77 26.03 26.71 27.10 27.44 26.75 29.36 30.88 28.87 27.59 27.72 28.25
44.82 44.27 44.86 44.67 44.30 43.71 43.24 41.71 40.83 40.69 40.68 40.92 41.35 41.20 40.95 39.57 38.14 37.36 35.78 35.07 34.91 34.30 33.76 32.04 31.81 32.35 29.63 32.97 32.47 31.14 27.64 24.51 25.54 25.79 27.02 29.05 28.82 29.07 28.77 27.69 27.36 26.16 26.18
43.63 43.76 43.23 42.38 42.27 42.59 41.70 39.60 39.30 38.61 39.98 40.97 41.25 40.90 41.09 39.08 37.97 36.96 36.09 35.24 33.34 31.39 30.87 30.26 30.12 30.22 30.36 29.88 31.69 29.28 26.61 25.52 24.73 24.44 24.78 26.55 29.15 29.84 29.07 28.22 25.96 25.66 27.29
41.45 41.57 40.45 40.27 41.42 41.24 40.21 38.58 37.64 39.18 39.94 39.52 38.98 38.82 39.58 38.70 37.77 35.81 34.85 34.20 31.69 30.11 29.03 25.96 27.15 28.81 29.54 30.74 29.81 28.77 26.89 26.27 23.84 23.79 25.31 27.22 27.20 28.76 28.03 27.50 28.01 28.53 27.03
39.99 40.36 39.46 39.13 39.94 40.47 39.98 38.00 38.47 39.07 38.47 37.36 36.90 36.80 38.06 38.01 37.32 35.14 33.75 30.55 30.35 28.11 26.85 26.68 25.79 26.40 26.83 26.32 27.72 25.76 25.80 25.66 23.48 24.97 25.61 26.46 27.81 28.03 27.34 28.18 29.28 28.04 26.31
39.34 39.61 38.90 38.37 38.70 39.93 39.95 38.99 38.73 38.19 37.04 35.34 34.88 35.44 35.15 35.40 35.36 34.08 32.82 30.08 28.28 26.98 28.13 26.01 23.85 23.13 23.60 23.22 22.64 23.02 23.18 24.28 23.99 23.81 23.48 25.15 26.11 25.79 26.53 27.09 27.70 27.59 27.44
39.37 39.26 38.80 38.15 37.95 38.93 38.88 38.87 38.04 37.21 35.12 34.12 33.84 32.99 33.14 33.36 32.13 31.49 30.38 29.22 28.36 26.68 24.85 23.82 22.96 19.41 18.86 21.02 23.08 23.24 22.12 22.48 23.36 22.45 24.45 23.56 22.47 22.76 23.21 24.15 24.67 26.04 25.26
38.44 38.13 38.27 37.91 37.83 38.12 37.44 37.29 37.18 36.00 33.58 30.97 30.84 31.08 31.13 31.59 30.41 29.64 29.59 30.58 28.85 28.05 27.42 25.91 22.31 20.93 23.56 24.29 24.23 23.96 24.01 24.55 24.46 22.60 21.26 20.27 19.90 20.27 21.64 21.92 21.77 22.57 23.18
MSLP
1012.58 1013.23 1013.73 1014.24 1014.68 1015.37 1015.80 1015.97 1016.68 1017.09 1017.46 1017.42 1017.72 1017.84 1018.05 1017.95 1017.93 1017.96 1018.20 1018.62 1018.80 1018.98 1019.02 1019.08 1019.04 1018.88 1018.75 1018.55 1018.45 1017.90 1017.57 1017.51 1017.19 1016.82 1016.24 1015.65 1015.21 1014.88 1014.62 1014.58 1014.40 1014.32 1014.36
1013.66 1014.53 1015.28 1015.63 1016.17 1016.64 1016.76 1016.91 1017.32 1017.90 1018.10 1018.14 1018.24 1018.43 1018.46 1018.33 1018.25 1018.11 1018.29 1018.47 1018.68 1018.96 1019.00 1019.08 1019.23 1018.76 1018.91 1018.84 1018.66 1018.11 1017.73 1017.46 1017.22 1017.07 1016.59 1015.92 1015.23 1014.83 1014.46 1014.08 1013.78 1013.73 1013.47
1014.32 1015.19 1016.10 1016.83 1017.27 1017.43 1017.48 1017.72 1018.05 1018.36 1018.74 1018.80 1018.50 1018.57 1018.48 1018.19 1018.34 1018.33 1018.33 1018.15 1018.89 1019.11 1019.14 1019.14 1019.03 1018.82 1018.82 1018.86 1018.78 1018.37 1018.06 1017.78 1017.49 1017.19 1017.24 1017.02 1016.24 1015.53 1014.74 1014.45 1014.37 1014.51 1014.11
1014.87 1015.61 1016.66 1017.41 1017.76 1018.00 1018.10 1018.24 1018.40 1018.59 1018.92 1019.22 1019.33 1019.39 1019.32 1019.17 1019.28 1019.16 1019.23 1019.01 1019.07 1019.25 1019.30 1019.08 1018.97 1018.84 1018.79 1018.88 1018.72 1018.37 1018.57 1018.63 1018.64 1018.16 1018.27 1018.54 1018.60 1017.24 1015.65 1015.09 1014.92 1015.06 1015.50
1015.60 1016.31 1017.02 1017.60 1018.12 1018.45 1018.65 1018.67 1018.60 1018.61 1018.90 1019.30 1019.47 1019.68 1019.90 1020.04 1019.94 1019.73 1019.61 1019.62 1019.43 1019.54 1019.38 1019.31 1019.13 1018.99 1019.03 1019.01 1019.06 1019.11 1019.28 1019.44 1019.65 1019.71 1019.47 1019.11 1018.75 1018.60 1018.60 1017.02 1016.52 1016.51 1016.36
1016.16 1016.60 1016.96 1017.27 1017.98 1018.33 1018.59 1018.79 1018.76 1018.74 1018.86 1019.02 1019.31 1019.52 1019.80 1019.94 1020.00 1020.02 1020.09 1020.15 1020.19 1020.08 1019.93 1019.56 1019.36 1019.08 1018.93 1019.31 1019.31 1019.34 1019.45 1019.96 1020.18 1020.21 1020.12 1020.02 1019.77 1019.55 1019.45 1018.93 1018.12 1018.17 1017.49
1016.47 1016.66 1016.99 1017.33 1017.70 1018.14 1018.48 1018.65 1018.82 1018.96 1018.86 1018.99 1019.08 1019.31 1019.60 1019.88 1020.15 1020.33 1020.59 1020.67 1020.64 1020.49 1020.33 1019.87 1019.45 1019.54 1019.45 1019.58 1019.55 1019.54 1019.77 1020.08 1020.18 1020.17 1020.14 1020.06 1020.06 1020.09 1019.98 1019.82 1019.23 1018.62 1017.85
1016.70 1016.92 1017.20 1017.52 1017.80 1018.07 1018.38 1018.63 1018.87 1019.06 1019.12 1019.24 1019.76 1019.86 1019.94 1020.08 1020.40 1020.73 1020.91 1021.02 1020.94 1020.72 1020.22 1020.02 1019.84 1019.82 1019.86 1019.89 1019.84 1019.85 1020.01 1020.01 1020.07 1019.80 1019.60 1019.47 1019.35 1019.31 1019.20 1019.09 1018.92 1018.53 1017.94
1016.75 1017.01 1017.23 1017.56 1017.86 1018.13 1018.50 1018.75 1018.97 1019.11 1019.25 1019.57 1019.82 1020.02 1020.30 1020.39 1020.56 1020.81 1020.98 1021.00 1020.85 1020.48 1020.26 1020.15 1020.15 1020.25 1020.22 1020.32 1020.24 1019.97 1019.91 1019.83 1019.86 1019.69 1019.50 1019.40 1019.13 1018.88 1018.66 1018.46 1018.43 1018.63 1018.28
1016.63 1017.02 1017.32 1017.73 1018.16 1018.58 1018.78 1018.97 1019.08 1019.25 1019.40 1019.71 1019.97 1020.08 1020.21 1020.44 1020.70 1020.90 1020.89 1020.81 1020.78 1020.58 1020.45 1020.55 1020.59 1020.45 1020.41 1020.40 1020.27 1020.14 1019.89 1019.72 1019.50 1019.35 1019.23 1019.07 1018.85 1018.75 1018.69 1018.49 1018.23 1018.10 1018.01
1016.88 1017.21 1017.65 1018.21 1018.65 1018.99 1019.09 1019.19 1019.24 1019.40 1019.73 1020.22 1020.49 1020.56 1020.48 1020.43 1020.55 1020.80 1021.04 1021.15 1021.05 1020.69 1020.50 1020.68 1020.90 1020.84 1020.62 1020.57 1020.42 1020.07 1019.68 1019.43 1019.24 1019.12 1019.00 1018.85 1018.49 1018.21 1018.05 1017.82 1017.43 1017.34 1017.25
1017.19 1017.71 1018.21 1018.50 1018.80 1018.93 1019.02 1019.16 1019.33 1019.64 1020.05 1020.42 1020.46 1020.59 1020.56 1020.75 1020.99 1021.18 1021.27 1021.21 1021.08 1020.47 1020.29 1020.25 1020.37 1020.48 1020.33 1020.16 1019.95 1019.55 1019.24 1019.02 1018.84 1018.70 1018.53 1018.23 1017.87 1017.60 1017.46 1017.31 1017.18 1016.93 1016.69
1017.69 1018.05 1018.41 1018.75 1018.95 1019.08 1019.18 1019.27 1019.56 1019.86 1020.16 1020.34 1020.50 1020.58 1020.59 1020.78 1021.07 1021.23 1021.25 1021.00 1020.68 1020.39 1020.11 1019.97 1019.90 1019.89 1019.79 1019.58 1019.41 1019.14 1018.91 1019.00 1018.96 1018.94 1018.65 1018.21 1017.83 1017.62 1017.38 1017.20 1017.07 1016.83 1016.50
1017.95 1018.33 1018.79 1019.07 1019.29 1019.25 1019.24 1019.37 1019.58 1019.80 1019.98 1020.25 1020.41 1020.48 1020.42 1020.59 1020.81 1020.87 1020.90 1020.87 1020.63 1020.37 1020.13 1019.98 1019.91 1019.80 1019.59 1019.38 1019.18 1019.17 1019.24 1019.36 1019.43 1019.31 1018.90 1018.32 1017.80 1017.34 1017.07 1016.95 1017.01 1016.79 1016.81
1018.61 1019.25 1019.77 1019.83 1019.60 1019.35 1019.32 1019.46 1019.54 1019.77 1019.67 1019.87 1020.06 1020.21 1019.98 1020.04 1020.30 1020.41 1020.63 1020.66 1020.50 1020.28 1020.16 1020.04 1019.97 1019.79 1019.54 1019.57 1019.69 1019.72 1019.69 1019.59 1019.33 1019.11 1018.73 1018.07 1017.44 1016.98 1016.62 1016.44 1016.41 1016.51 1016.51
1019.86 1020.07 1020.25 1019.97 1019.50 1019.33 1019.30 1019.34 1019.37 1019.27 1019.24 1019.21 1019.16 1019.09 1019.34 1020.03 1020.11 1020.13 1020.31 1020.28 1020.15 1020.10 1020.08 1020.05 1019.95 1019.72 1019.58 1019.92 1020.09 1020.19 1020.14 1019.83 1019.51 1019.07 1018.42 1017.82 1017.16 1016.61 1016.23 1016.09 1015.88 1015.82 1015.96
1020.65 1020.53 1020.36 1019.76 1019.59 1019.46 1019.30 1019.08 1018.79 1018.89 1019.03 1019.24 1018.63 1018.47 1018.88 1019.02 1019.21 1019.57 1019.78 1019.89 1019.91 1019.91 1019.89 1019.84 1019.74 1019.73 1019.86 1020.17 1020.30 1020.31 1020.21 1019.85 1019.46 1018.98 1018.38 1017.66 1017.04 1016.67 1016.41 1016.29 1016.03 1015.96 1015.97
1020.69 1020.39 1019.95 1019.60 1019.42 1019.25 1019.07 1018.73 1018.55 1018.49 1018.36 1018.31 1018.26 1017.65 1017.95 1018.47 1018.43 1018.94 1019.27 1019.36 1019.57 1019.67 1019.63 1019.54 1019.55 1019.72 1019.86 1019.97 1019.98 1020.03 1019.83 1019.59 1019.33 1018.97 1018.43 1017.79 1017.10 1016.72 1016.35 1015.92 1015.65 1015.55 1015.24
1020.65 1020.04 1019.58 1019.45 1019.24 1019.15 1019.21 1019.01 1018.72 1018.50 1018.12 1017.76 1018.28 1018.91 1018.64 1018.35 1018.38 1018.52 1018.99 1019.12 1019.32 1019.37 1019.32 1019.45 1019.61 1019.71 1019.81 1019.79 1019.70 1019.79 1019.51 1019.20 1018.89 1018.54 1018.06 1017.53 1016.86 1016.38 1016.00 1015.64 1015.35 1015.02 1014.59
1020.06 1019.72 1019.36 1019.09 1019.36 1019.25 1019.23 1019.18 1018.95 1018.66 1018.21 1018.37 1018.49 1018.37 1018.06 1018.36 1018.19 1018.67 1019.53 1019.24 1019.12 1019.11 1019.40 1019.75 1019.84 1019.90 1019.75 1019.69 1019.54 1019.32 1019.39 1019.17 1018.76 1018.21 1017.63 1017.10 1016.53 1016.28 1015.93 1015.63 1015.18 1014.71 1014.38
1019.84 1019.58 1019.41 1019.32 1019.33 1019.32 1019.35 1019.35 1019.17 1018.87 1018.70 1018.58 1018.55 1018.65 1018.81 1019.12 1019.17 1019.63 1019.15 1019.07 1019.10 1019.30 1019.63 1019.89 1020.01 1019.89 1019.73 1019.60 1019.39 1019.46 1019.40 1019.22 1018.71 1018.09 1017.39 1016.75 1016.26 1015.79 1015.49 1015.22 1014.98 1014.56 1014.22
1019.94 1019.86 1019.76 1019.69 1019.66 1019.61 1019.49 1019.29 1019.15 1019.06 1019.02 1019.17 1019.11 1018.95 1018.91 1019.13 1019.08 1018.99 1018.93 1018.90 1018.99 1019.38 1019.84 1020.14 1020.12 1019.96 1019.74 1019.58 1019.47 1019.55 1019.40 1019.01 1018.60 1018.02 1017.29 1016.57 1016.09 1015.51 1015.15 1014.76 1014.40 1014.10 1013.90
1020.32 1020.33 1020.27 1020.07 1019.91 1019.58 1019.35 1019.21 1019.18 1019.21 1019.50 1019.46 1019.46 1019.38 1019.40 1019.35 1019.20 1019.53 1019.21 1018.96 1019.18 1019.67 1020.11 1020.39 1020.37 1020.17 1019.97 1019.83 1019.70 1019.64 1019.24 1018.86 1018.49 1017.93 1017.23 1016.44 1015.81 1015.35 1014.93 1014.26 1013.93 1013.62 1013.40
1020.61 1020.46 1020.43 1020.09 1019.74 1019.55 1019.41 1019.46 1019.66 1019.79 1019.79 1019.90 1019.88 1019.63 1019.44 1019.23 1019.06 1019.09 1019.04 1019.30 1019.59 1019.92 1020.24 1020.48 1020.58 1020.50 1020.33 1020.14 1020.01 1019.71 1019.34 1018.83 1018.31 1017.78 1017.02 1016.32 1015.94 1015.54 1015.02 1014.42 1013.94 1013.59 1013.29
1020.60 1020.55 1020.21 1019.95 1019.77 1019.69 1019.68 1019.77 1020.01 1020.15 1020.35 1020.43 1020.30 1020.07 1019.80 1019.47 1019.44 1019.46 1019.66 1019.86 1020.06 1020.35 1020.61 1020.73 1020.82 1020.72 1020.71 1020.55 1020.12 1019.75 1019.31 1018.82 1018.36 1017.70 1016.87 1016.52 1016.25 1015.76 1015.34 1014.88 1014.55 1014.07 1013.75
1020.86 1020.52 1020.31 1020.16 1020.03 1020.05 1020.10 1020.20 1020.30 1020.46 1020.71 1020.87 1020.80 1020.66 1020.46 1020.18 1020.03 1019.93 1019.92 1020.06 1020.27 1020.43 1020.55 1020.65 1020.78 1020.77 1020.75 1020.52 1020.02 1019.62 1019.16 1018.61 1018.26 1017.74 1017.32 1017.07 1016.82 1016.35 1015.83 1015.44 1015.09 1014.66 1014.17
Wind_Speed
16 16 12 11 10 8 11 12 11 5 3 3 3 4 4 4 4 4 7 6 4 5 4 4 5 6 5 6 7 5 6 6 5 6 7 7 8 9 10 7 6 7 8
14 14 13 12 10 8 7 8 9 8 7 5 3 1 1 2 2 3 3 2 3 3 5 4 5 5 5 7 7 6 6 5 4 6 7 9 9 7 9 9 10 10 9
12 12 12 10 8 8 8 8 7 7 6 7 4 4 4 3 3 4 4 4 6 6 6 7 5 5 4 4 6 7 8 7 5 7 5 8 8 7 6 10 5 6 5
11 11 10 9 8 7 7 6 6 6 6 6 6 6 5 5 6 5 6 7 7 7 7 7 6 6 3 5 6 6 6 8 8 7 9 7 6 5 8 2 7 6 10
9 9 9 10 9 6 5 5 5 3 6 2 4 3 5 5 5 4 6 6 5 7 8 8 7 6 5 5 7 8 9 7 6 5 4 5 6 3 3 6 6 8 7
6 7 6 10 10 6 4 3 5 6 6 4 3 2 3 4 4 5 5 6 6 7 7 9 6 6 5 5 4 4 6 4 3 4 4 3 3 3 2 3 3 6 5
6 6 6 7 5 4 1 1 5 6 6 7 4 3 4 6 6 6 6 9 8 7 8 8 6 5 4 5 4 4 3 3 2 3 3 2 3 2 2 2 3 4 4
3 2 3 3 4 5 6 6 6 7 7 6 9 7 6 4 5 7 6 5 5 6 8 6 6 6 5 5 3 0 2 4 4 6 5 4 4 4 4 4 3 4 3
3 4 5 3 4 4 5 4 5 6 7 7 5 5 6 5 5 6 5 3 5 6 5 5 4 4 5 5 4 3 4 5 5 6 5 6 6 4 4 3 3 4 3
6 7 7 8 9 9 7 7 6 7 7 7 5 5 5 6 4 4 6 5 6 7 7 9 7 6 6 5 5 4 4 5 5 5 6 6 5 6 5 7 5 5 7
6 6 8 9 6 4 5 5 6 7 7 8 7 7 6 5 4 4 6 7 8 7 7 6 5 6 4 5 5 8 6 5 5 5 7 9 9 7 6 7 6 6 7
7 9 9 9 7 5 5 6 5 6 7 7 7 6 6 9 9 9 9 7 8 7 7 7 4 5 6 6 7 7 6 7 6 6 8 10 8 8 5 5 6 5 5
8 8 6 6 10 10 9 6 6 5 6 7 7 8 6 5 5 5 6 5 6 6 7 7 6 6 6 6 6 6 5 7 9 10 10 10 9 8 6 7 6 5 7
10 10 10 12 11 9 8 6 6 5 6 7 7 7 5 2 3 4 5 6 7 7 7 7 7 7 7 8 7 7 7 7 8 11 13 13 12 10 8 5 5 6 6
12 13 12 10 10 9 8 8 7 7 5 6 6 6 6 2 2 3 5 6 7 6 7 8 7 7 8 5 5 6 6 6 8 10 12 12 14 20 10 6 6 5 5
13 14 12 13 11 10 9 8 7 7 5 5 6 8 4 4 3 4 5 6 5 5 6 6 7 7 7 8 6 6 6 9 10 11 13 12 16 14 12 10 15 11 5
12 13 13 11 10 10 11 12 7 8 7 11 10 7 1 6 4 4 5 5 4 5 5 6 6 6 6 7 7 8 6 8 9 11 12 12 10 13 10 10 9 8 14
13 12 10 10 9 9 12 11 9 10 10 10 13 12 3 4 3 4 5 2 3 5 5 5 4 4 5 5 8 7 6 6 8 10 12 13 13 11 13 11 8 9 8
10 11 11 12 10 12 12 13 15 16 16 13 14 14 9 6 4 5 3 3 4 5 4 5 5 6 6 11 13 10 7 7 7 9 10 12 12 17 21 13 10 11 10
12 13 13 11 11 10 12 13 15 16 15 12 12 8 11 10 4 8 6 4 5 4 5 4 5 7 7 10 10 11 4 6 7 9 11 16 16 7 12 8 8 8 7
14 14 14 13 13 13 13 13 14 15 15 15 14 12 10 8 6 6 6 5 4 5 3 3 4 6 6 6 14 9 5 6 8 9 9 9 18 14 14 12 7 10 9
16 16 14 14 13 13 12 12 13 14 13 13 13 12 8 7 4 6 5 4 4 4 5 4 5 5 5 9 11 11 15 17 9 10 10 8 22 14 15 13 14 14 8
15 14 13 15 14 13 12 13 12 11 11 12 11 11 10 7 6 6 8 3 5 4 3 4 6 6 5 6 15 18 21 18 10 9 15 23 21 13 10 15 11 10 6
13 12 15 14 13 13 12 10 11 11 11 9 10 9 8 6 5 4 4 4 3 2 2 4 4 5 6 6 7 8 8 14 11 11 11 11 7 8 8 8 6 5 4
12 14 13 13 14 15 13 12 11 10 8 9 9 8 6 5 4 4 4 3 4 2 2 2 2 3 5 6 14 13 9 9 8 12 6 5 6 6 7 6 8 6 6
14 13 14 14 13 14 13 12 9 6 6 5 6 6 6 5 3 4 4 4 2 2 4 3 2 3 8 14 17 17 19 19 13 7 5 5 6 7 7 6 5 6 6
Wind_Direction
62 59 62 65 74 42 52 33 72 48 352 28 14 12 11 10 358 19 57 34 20 13 324 299 312 325 308 310 312 300 305 294 288 288 281 281 266 250 244 235 217 215 204
81 79 72 64 62 55 61 62 68 42 31 28 20 65 303 305 313 288 79 305 53 337 318 338 306 303 321 318 303 298 299 292 293 286 292 300 292 270 270 255 238 229 225
105 92 80 73 69 55 52 66 70 67 53 0 24 11 339 336 342 6 336 9 20 342 313 293 299 320 312 316 317 307 304 310 317 310 295 310 289 318 305 305 320 315 276
81 88 92 95 80 64 51 72 46 52 59 50 6 2 331 347 354 359 350 353 354 326 348 334 331 326 338 312 292 342 16 11 354 348 12 6 342 320 308 303 324 330 19
74 95 102 91 77 69 59 26 347 114 125 70 23 2 12 345 333 332 335 339 356 349 346 338 340 338 330 312 50 34 30 24 2 352 334 327 324 81 339 312 358 338 5
101 101 110 134 137 131 114 17 330 6 18 55 26 355 316 303 339 330 340 6 349 347 337 332 335 313 336 32 44 69 56 26 334 331 319 334 320 327 345 313 332 320 314
62 59 53 33 48 87 30 49 11 333 342 8 359 11 15 8 5 359 8 360 341 334 329 320 320 28 44 64 50 43 27 305 299 273 283 279 274 248 212 215 281 285 290
98 67 64 28 35 32 26 15 9 351 343 2 38 27 16 21 23 21 6 340 332 325 306 359 19 20 40 32 30 200 274 283 262 258 250 251 240 208 213 217 231 290 279
43 316 29 21 5 20 22 23 338 327 11 18 9 6 35 15 35 15 350 333 307 307 8 341 356 45 50 24 342 330 309 324 317 292 304 314 308 307 310 260 215 215 296
30 360 1 15 15 9 13 12 14 355 2 12 28 7 0 8 16 347 298 319 349 1 352 19 29 356 351 353 348 321 319 294 284 289 283 261 247 253 275 270 268 242 246
356 359 12 37 9 7 350 357 357 7 11 12 1 354 337 315 327 354 17 7 341 336 343 4 12 337 346 330 321 285 280 295 300 305 301 301 297 294 280 273 261 245 230
7 20 359 359 1 340 350 341 24 16 20 349 330 332 332 35 13 2 346 342 304 318 312 287 273 267 269 264 258 264 265 255 271 283 285 287 289 294 300 300 295 290 292
8 352 340 340 353 340 337 344 11 359 354 332 339 333 341 43 347 311 318 305 305 315 311 326 325 327 317 307 311 298 313 5 347 328 315 308 307 304 299 293 293 298 305
348 357 1 353 338 331 321 346 326 12 332 338 335 314 326 53 316 317 321 321 314 315 323 330 326 323 319 314 327 360 12 355 330 317 312 308 301 286 279 303 316 302 311
350 6 345 327 312 321 329 322 352 323 333 318 300 302 284 96 5 343 307 311 313 325 335 330 324 323 318 29 21 5 338 322 313 306 302 299 299 303 265 267 263 266 263
349 344 336 313 314 323 327 319 299 296 303 291 284 273 69 350 318 320 297 290 315 337 325 323 317 321 327 87 45 9 337 321 320 308 299 296 301 299 319 280 256 245 261
340 323 308 306 336 332 327 315 314 312 335 301 310 307 281 247 246 287 298 300 335 318 317 310 317 344 9 58 26 3 326 310 318 312 311 310 310 321 325 333 311 263 259
324 313 308 319 321 321 314 319 328 298 293 309 296 276 217 241 245 260 267 304 317 302 293 296 13 11 347 6 349 323 300 318 309 314 313 309 312 311 311 306 300 286 281
311 304 323 325 319 330 329 343 337 327 319 310 6 338 293 259 254 270 303 336 304 288 309 345 3 348 328 315 317 333 303 293 295 297 298 296 299 299 307 304 284 278 277
321 318 311 318 322 347 349 339 332 326 334 359 311 302 311 309 352 22 329 299 291 327 49 17 351 328 318 338 318 324 323 310 310 307 305 299 298 339 334 329 324 312 302
318 337 341 342 346 346 346 339 326 328 343 351 351 1 3 358 19 324 302 314 336 4 76 39 350 320 325 314 329 5 339 318 316 312 312 306 313 311 311 305 286 278 296
341 342 343 340 341 342 334 328 335 341 347 350 341 335 320 304 253 243 263 308 330 28 34 0 337 318 322 337 352 360 342 336 329 317 305 319 318 323 319 309 291 286 287
343 343 340 338 323 321 327 332 331 359 348 337 339 343 330 315 324 345 278 344 35 58 18 349 322 331 349 345 7 348 342 336 329 314 319 314 309 331 318 291 290 288 265
329 338 326 310 315 326 341 354 6 354 343 343 334 328 313 286 287 6 354 15 28 34 350 328 332 338 336 337 349 338 330 331 329 325 310 307 358 335 328 344 341 334 354
336 326 318 327 337 337 347 357 355 353 346 340 335 323 342 3 5 21 31 11 62 60 338 325 344 339 333 332 331 336 333 325 327 318 314 5 357 348 349 359 351 355 356
325 323 329 327 336 339 345 341 339 352 345 342 330 346 346 347 4 1 351 82 96 270 262 254 232 305 312 334 339 339 335 331 332 325 358 3 358 345 343 1 353 347 351